Location: East Guldeford
(50.9500°N, 0.7500°E)
Time: 09:51:11
(UTC+00:00)

Terra - Pass Details

Date: 12 May 2021
Orbit: 701 x 703 km, 98.2° (Epoch: 17 June)

Event Time Altitude Azimuth Distance (km) Brightness Sun altitude
Exits shadow 22:15:57 23° 198° (SSW) 1,494 3.1 -17.5°
Maximum altitude 22:18:40 46° 261° (W) 942 2.5 -17.6°
Drops below altitude 10° 22:23:17 10° 335° (NNW) 2,183 5.7 -17.9°
Sets 22:25:38 0° 342° (NNW) 3,106 6.9 -18.0°
